This demonstration page uses our WeatherBlox Daily Observations layout. Learn more.

Left ArrowRight Arrow

Hourly Observations for September 6, 2022

Temp ( °F °C ) Dew Point ( °F °C ) Humidity (%) Winds ( mph kmh ) Pressure ( in mb ) Visibility ( mi km ) Precip ( " mm )
12:36 am 00:36 Mostly Cloudy 73 22.8 69 20.6 87 87 NNE 5 7 30.02 1017 10 16 0.00 0.00
12:53 am 00:53 Partly Cloudy 72 22.2 68 20 87 87 ENE 7 11 30.02 1017 10 16 0.00 0.00
1:12 am 01:12 Mostly Cloudy 72 22.2 68 20 87 87 VRB 7 11 30.02 1017 10 16 0.00 0.00
1:29 am 01:29 Cloudy 72 22.2 68 20 87 87 E 7 11 30.02 1017 10 16 0.00 0.00
1:53 am 01:53 Cloudy 72 22.2 68 20 87 87 E 6 9 30.02 1017 10 16 0.00 0.00
2:53 am 02:53 Cloudy 71 21.7 68 20 90 90 Calm 30.01 1016 10 16 0.00 0.00
3:53 am 03:53 Cloudy 71 21.7 67 19.4 87 87 ENE 3 6 30.00 1016 10 16 0.00 0.00
4:53 am 04:53 Cloudy 70 21.1 67 19.4 90 90 E 6 9 30.01 1016 10 16 0.00 0.00
5:13 am 05:13 Cloudy 70 21.1 67 19.4 90 90 E 7 11 30.01 1016 10 16 0.00 0.00
5:53 am 05:53 Cloudy 71 21.7 67 19.4 87 87 NE 3 6 30.02 1017 10 16 0.00 0.00
6:53 am 06:53 Cloudy 70 21.1 67 19.4 90 90 NE 5 7 30.03 1017 10 16 0.00 0.00
7:53 am 07:53 Cloudy 70 21.1 66 18.9 87 87 NE 6 9 30.05 1018 10 16 0.00 0.00
8:53 am 08:53 Cloudy 71 21.7 66 18.9 84 84 NNE 3 6 30.06 1018 10 16 0.00 0.00
9:53 am 09:53 Cloudy with Nearby Thunderstorms 71 21.7 66 18.9 84 84 ENE 5 7 30.07 1018 10 16 0.00 0.00
10:11 am 10:11 Cloudy with Thunderstorms 71 21.7 66 18.9 84 84 N 7 11 30.08 1019 10 16 0.00 0.00
10:24 am 10:24 Cloudy with Thunderstorms 69 20.6 66 18.9 90 90 NW 6 9 30.08 1019 10 16 0.01 0.13
10:31 am 10:31 Cloudy with Thunderstorms 69 20.6 66 18.9 90 90 N 3 6 30.09 1019 3 5 0.04 1.02
10:34 am 10:34 Cloudy with Strong Thunderstorms 68 20 66 18.9 93 93 NNW 3 6 30.09 1019 2 3 0.07 1.78
10:41 am 10:41 Cloudy with Strong Thunderstorms 68 20 66 18.9 93 93 E 5 7 30.09 1019 1 2 0.16 4.06
10:53 am 10:53 Cloudy with Strong Thunderstorms 68 20 66 18.9 93 93 NNE 5 7 30.09 1019 2 3 0.24 6.10
10:56 am 10:56 Cloudy with Nearby Thunderstorms 68 20 66 18.9 93 93 NNE 7 11 30.09 1019 3 4 0.01 0.25
11:03 am 11:03 Cloudy with Nearby Thunderstorms 68 20 66 18.9 93 93 ENE 6 9 30.09 1019 6 10 0.01 0.25
11:25 am 11:25 Cloudy with Light Rain 69 20.6 66 18.9 90 90 Calm 30.09 1019 6 10 0.02 0.51
11:53 am 11:53 Cloudy with Light Rain 69 20.6 67 19.4 93 93 VRB 3 6 30.10 1019 8 13 0.06 1.52
12:05 pm 12:05 Cloudy with Light Rain 70 21.1 67 19.4 90 90 NNW 3 6 30.10 1019 8 13 0.01 0.25
12:53 pm 12:53 Mostly Cloudy 71 21.7 67 19.4 87 87 NE 5 7 30.09 1019 10 16 0.01 0.25
1:11 pm 13:11 Partly Cloudy 74 23.3 68 20 82 82 NE 8 13 30.08 1019 10 16 0.00 0.00
1:36 pm 13:36 Mostly Cloudy 75 23.9 67 19.4 76 76 NNE 3 6 30.08 1019 10 16 0.00 0.00
1:53 pm 13:53 Mostly Cloudy 75 23.9 66 18.9 74 74 NNE 7 11 30.08 1019 10 16 0.00 0.00
2:09 pm 14:09 Partly Cloudy 77 25 67 19.4 71 71 NE 7 11 30.06 1018 10 16 0.00 0.00
2:53 pm 14:53 Mostly Cloudy 77 25 65 18.3 66 66 Calm 30.06 1018 10 16 0.00 0.00
3:53 pm 15:53 Cloudy 77 25 65 18.3 66 66 NNE 3 6 30.05 1018 10 16 0.00 0.00
4:53 pm 16:53 Mostly Cloudy 80 26.7 66 18.9 62 62 VRB 3 6 30.04 1017 10 16 0.00 0.00
5:53 pm 17:53 Mostly Cloudy 78 25.6 65 18.3 64 64 N 8 13 30.04 1017 10 16 0.00 0.00
6:53 pm 18:53 Mostly Cloudy 76 24.4 66 18.9 71 71 NE 5 7 30.05 1018 10 16 0.00 0.00
7:53 pm 19:53 Cloudy 74 23.3 65 18.3 74 74 NNE 5 7 30.06 1018 10 16 0.00 0.00
8:53 pm 20:53 Cloudy 71 21.7 65 18.3 81 81 N 5 7 30.08 1019 10 16 0.00 0.00
9:53 pm 21:53 Cloudy 71 21.7 64 17.8 79 79 NNE 5 7 30.09 1019 10 16 0.00 0.00
10:53 pm 22:53 Partly Cloudy 69 20.6 64 17.8 84 84 NNE 3 6 30.09 1019 10 16 0.00 0.00
11:53 pm 23:53 Clear 68 20 64 17.8 87 87 NNE 3 6 30.09 1019 10 16 0.00 0.00

Powered by AerisWeather